• In Österreich
  • Länderverzeichnis
  • Für 7 Tage
  • Wassertemperatur
  • Satellitenkarten
  • Wetterkarte
  • News
  • Widgets
  • user-avatar
    Anmelden

    Stündliche Wetter Chipata

    Heute, 21 Oktober, Sonntag

    Zeit Temperatur Niederschläge Wind Luftdruck Luftfeuchtigkeit
    00:00 +25°C° 0 mm 3 m/S 679 mmHg 60%
    01:00 +25°C° 0 mm 3 m/S 679 mmHg 62%
    02:00 +25°C° 0 mm 3 m/S 679 mmHg 64%
    03:00 +23°C° 0 mm 4 m/S 679 mmHg 67%
    04:00 +22°C° 0 mm 4 m/S 679 mmHg 70%
    05:00 +22°C° 0 mm 4 m/S 680 mmHg 73%
    06:00 +23°C° 0 mm 5 m/S 680 mmHg 68%
    07:00 +25°C° 0 mm 5 m/S 681 mmHg 63%
    08:00 +26°C° 0 mm 5 m/S 682 mmHg 58%
    09:00 +27°C° 0.1 mm 5 m/S 682 mmHg 53%
    10:00 +28°C° 0.1 mm 5 m/S 682 mmHg 47%
    11:00 +30°C° 0.1 mm 5 m/S 682 mmHg 41%
    12:00 +30°C° 0.2 mm 5 m/S 681 mmHg 41%
    13:00 +30°C° 0.2 mm 5 m/S 681 mmHg 40%
    14:00 +30°C° 0.2 mm 5 m/S 680 mmHg 39%
    15:00 +29°C° 0 mm 5 m/S 680 mmHg 40%
    16:00 +28°C° 0 mm 5 m/S 680 mmHg 41%
    17:00 +28°C° 0 mm 5 m/S 680 mmHg 42%
    18:00 +27°C° 0 mm 4 m/S 680 mmHg 44%
    19:00 +26°C° 0 mm 4 m/S 681 mmHg 45%
    20:00 +25°C° 0 mm 4 m/S 681 mmHg 47%
    21:00 +25°C° 0 mm 4 m/S 681 mmHg 50%
    22:00 +23°C° 0 mm 4 m/S 682 mmHg 53%
    23:00 +22°C° 0 mm 5 m/S 682 mmHg 57%

    Morgen, 22 Oktober, Montag

    Zeit Temperatur Niederschläge Wind Luftdruck Luftfeuchtigkeit
    00:00 +21°C° 0 mm 5 m/S 682 mmHg 59%
    01:00 +21°C° 0 mm 5 m/S 681 mmHg 61%
    02:00 +20°C° 0 mm 4 m/S 681 mmHg 64%
    03:00 +20°C° 0 mm 4 m/S 681 mmHg 65%
    04:00 +20°C° 0 mm 4 m/S 681 mmHg 66%
    05:00 +19°C° 0 mm 4 m/S 681 mmHg 68%
    06:00 +20°C° 0 mm 4 m/S 682 mmHg 64%
    07:00 +21°C° 0 mm 4 m/S 682 mmHg 61%
    08:00 +21°C° 0 mm 5 m/S 683 mmHg 57%
    09:00 +22°C° 0 mm 4 m/S 683 mmHg 55%
    10:00 +22°C° 0 mm 4 m/S 683 mmHg 53%
    11:00 +23°C° 0 mm 4 m/S 683 mmHg 51%
    12:00 +25°C° 0 mm 4 m/S 682 mmHg 47%
    13:00 +26°C° 0 mm 4 m/S 682 mmHg 43%
    14:00 +27°C° 0 mm 3 m/S 681 mmHg 39%
    15:00 +27°C° 0 mm 4 m/S 681 mmHg 40%
    16:00 +27°C° 0 mm 4 m/S 681 mmHg 40%
    17:00 +26°C° 0 mm 4 m/S 680 mmHg 40%
    18:00 +25°C° 0 mm 4 m/S 681 mmHg 42%
    19:00 +24°C° 0 mm 3 m/S 681 mmHg 44%
    20:00 +22°C° 0 mm 3 m/S 682 mmHg 45%
    21:00 +22°C° 0 mm 3 m/S 682 mmHg 48%
    22:00 +21°C° 0 mm 4 m/S 682 mmHg 50%
    23:00 +20°C° 0 mm 4 m/S 682 mmHg 52%

    übermorgen, 23 Oktober, Dienstag

    Zeit Temperatur Niederschläge Wind Luftdruck Luftfeuchtigkeit
    00:00 +19°C° 0 mm 4 m/S 682 mmHg 56%
    01:00 +19°C° 0 mm 4 m/S 682 mmHg 60%
    02:00 +18°C° 0 mm 4 m/S 681 mmHg 64%
    03:00 +18°C° 0 mm 4 m/S 682 mmHg 66%
    04:00 +17°C° 0 mm 4 m/S 682 mmHg 68%
    05:00 +17°C° 0 mm 3 m/S 682 mmHg 70%
    06:00 +18°C° 0 mm 4 m/S 683 mmHg 64%
    07:00 +19°C° 0 mm 4 m/S 683 mmHg 58%
    08:00 +21°C° 0 mm 4 m/S 684 mmHg 52%
    09:00 +23°C° 0 mm 4 m/S 684 mmHg 44%
    10:00 +26°C° 0 mm 4 m/S 684 mmHg 36%
    11:00 +29°C° 0 mm 4 m/S 684 mmHg 28%
    12:00 +30°C° 0 mm 4 m/S 683 mmHg 26%
    13:00 +32°C° 0 mm 4 m/S 682 mmHg 23%
    14:00 +33°C° 0 mm 4 m/S 681 mmHg 21%
    15:00 +32°C° 0 mm 4 m/S 681 mmHg 22%
    16:00 +30°C° 0 mm 4 m/S 681 mmHg 23%
    17:00 +29°C° 0 mm 4 m/S 680 mmHg 24%
    18:00 +28°C° 0 mm 4 m/S 681 mmHg 28%
    19:00 +26°C° 0 mm 4 m/S 681 mmHg 32%
    20:00 +23°C° 0 mm 4 m/S 681 mmHg 36%
    21:00 +22°C° 0 mm 4 m/S 682 mmHg 41%
    22:00 +21°C° 0 mm 4 m/S 682 mmHg 45%
    23:00 +21°C° 0 mm 4 m/S 682 mmHg 49%

    24 Oktober, Mittwoch

    Zeit Temperatur Niederschläge Wind Luftdruck Luftfeuchtigkeit
    00:00 +20°C° 0 mm 4 m/S 681 mmHg 53%
    01:00 +19°C° 0 mm 4 m/S 681 mmHg 57%
    02:00 +19°C° 0 mm 3 m/S 680 mmHg 61%
    03:00 +18°C° 0 mm 3 m/S 681 mmHg 63%
    04:00 +18°C° 0 mm 3 m/S 681 mmHg 66%
    05:00 +17°C° 0 mm 2 m/S 681 mmHg 69%
    06:00 +19°C° 0 mm 3 m/S 681 mmHg 63%
    07:00 +20°C° 0 mm 3 m/S 682 mmHg 57%
    08:00 +22°C° 0 mm 3 m/S 683 mmHg 52%
    09:00 +25°C° 0 mm 3 m/S 683 mmHg 45%
    10:00 +28°C° 0 mm 3 m/S 683 mmHg 37%
    11:00 +30°C° 0 mm 3 m/S 683 mmHg 30%
    12:00 +31°C° 0 mm 3 m/S 682 mmHg 28%
    13:00 +33°C° 0 mm 3 m/S 681 mmHg 25%
    14:00 +34°C° 0 mm 3 m/S 680 mmHg 23%
    15:00 +33°C° 0 mm 3 m/S 680 mmHg 25%
    16:00 +32°C° 0 mm 4 m/S 680 mmHg 26%
    17:00 +30°C° 0 mm 4 m/S 679 mmHg 28%
    18:00 +29°C° 0 mm 4 m/S 680 mmHg 33%
    19:00 +27°C° 0 mm 4 m/S 680 mmHg 37%
    20:00 +25°C° 0 mm 4 m/S 681 mmHg 42%
    21:00 +24°C° 0 mm 3 m/S 681 mmHg 44%
    22:00 +24°C° 0 mm 3 m/S 680 mmHg 45%
    23:00 +22°C° 0 mm 3 m/S 680 mmHg 47%

    25 Oktober, Donnerstag

    Zeit Temperatur Niederschläge Wind Luftdruck Luftfeuchtigkeit
    00:00 +21°C° 0 mm 2 m/S 680 mmHg 49%
    01:00 +21°C° 0 mm 2 m/S 679 mmHg 51%
    02:00 +20°C° 0 mm 2 m/S 679 mmHg 53%
    03:00 +20°C° 0 mm 2 m/S 679 mmHg 55%
    04:00 +20°C° 0 mm 2 m/S 679 mmHg 58%
    05:00 +19°C° 0 mm 2 m/S 679 mmHg 61%
    06:00 +21°C° 0 mm 3 m/S 680 mmHg 55%
    07:00 +24°C° 0 mm 3 m/S 680 mmHg 49%
    08:00 +26°C° 0 mm 3 m/S 681 mmHg 43%
    09:00 +28°C° 0 mm 3 m/S 681 mmHg 37%
    10:00 +31°C° 0 mm 3 m/S 681 mmHg 32%
    11:00 +34°C° 0 mm 3 m/S 681 mmHg 26%
    12:00 +35°C° 0 mm 3 m/S 680 mmHg 24%
    13:00 +36°C° 0 mm 3 m/S 679 mmHg 23%
    14:00 +37°C° 0 mm 3 m/S 679 mmHg 21%
    15:00 +36°C° 0 mm 3 m/S 679 mmHg 23%
    16:00 +35°C° 0 mm 3 m/S 678 mmHg 24%
    17:00 +34°C° 0 mm 4 m/S 678 mmHg 26%
    18:00 +32°C° 0 mm 4 m/S 679 mmHg 30%
    19:00 +30°C° 0 mm 3 m/S 679 mmHg 34%
    20:00 +28°C° 0 mm 3 m/S 679 mmHg 38%
    21:00 +27°C° 0 mm 3 m/S 679 mmHg 40%
    22:00 +26°C° 0 mm 2 m/S 679 mmHg 42%
    23:00 +25°C° 0 mm 2 m/S 679 mmHg 45%

    26 Oktober, Freitag

    Zeit Temperatur Niederschläge Wind Luftdruck Luftfeuchtigkeit
    00:00 +25°C° 0 mm 2 m/S 679 mmHg 46%
    01:00 +24°C° 0 mm 2 m/S 679 mmHg 47%
    02:00 +24°C° 0 mm 2 m/S 678 mmHg 48%
    03:00 +23°C° 0 mm 2 m/S 678 mmHg 49%
    04:00 +23°C° 0 mm 2 m/S 678 mmHg 49%
    05:00 +23°C° 0 mm 2 m/S 679 mmHg 49%
    06:00 +25°C° 0 mm 3 m/S 679 mmHg 46%
    07:00 +27°C° 0 mm 3 m/S 680 mmHg 42%
    08:00 +29°C° 0 mm 4 m/S 681 mmHg 39%
    09:00 +32°C° 0 mm 4 m/S 681 mmHg 35%
    10:00 +34°C° 0 mm 4 m/S 680 mmHg 31%
    11:00 +36°C° 0 mm 3 m/S 680 mmHg 27%
    12:00 +36°C° 0 mm 4 m/S 680 mmHg 27%
    13:00 +36°C° 0 mm 4 m/S 679 mmHg 26%
    14:00 +36°C° 0 mm 4 m/S 678 mmHg 26%
    15:00 +35°C° 0 mm 4 m/S 678 mmHg 27%
    16:00 +34°C° 0 mm 3 m/S 678 mmHg 29%
    17:00 +33°C° 0 mm 3 m/S 678 mmHg 30%
    18:00 +32°C° 0 mm 4 m/S 679 mmHg 33%
    19:00 +30°C° 0 mm 4 m/S 679 mmHg 35%
    20:00 +29°C° 0 mm 4 m/S 680 mmHg 38%
    21:00 +28°C° 0 mm 4 m/S 680 mmHg 40%
    22:00 +27°C° 0 mm 3 m/S 680 mmHg 42%
    23:00 +26°C° 0 mm 3 m/S 680 mmHg 44%
    Mehr zeigen